ituDewa

Jackpot

Texas Poker Multi Jackpot System

Kini Telah hadir Jackpot SUPER ROYAL FLUSH

Kini Telah hadir Jackpot 2000 (khusus table VIP keatas).

Ikutilah global jackpot yang tersedia di system kami, dengan system jackpot terbaru dan pertama di indonesia, anda dapat membeli jackpot dengan harga 100 rupiah saja dan menangkan hadiahnya hingga puluhan juta rupiah.

Jackpot bukanlah suatu keharusan untuk dibeli, namun kami memberikan suatu fitur tambahan untuk member tercinta dari www.sayadewi.com.

Terdapat tiga pilihan harga jackpot yang bisa anda beli yaitu :100,500,1000 dan 2000(khusus table VIP Keatas) rupiah.

Hadiah dari Multi jackpot system www.sayadewi.com

  1. full house x 10 harga jackpot yang anda beli.
      (contoh:anda membeli 1000 maka:1000 X10 = 10.000)
  2. four of kind x 250 harga jackpot yang anda beli
      (contoh:anda membeli 1000 maka:1000 X250 = 250.000)
  3. Straight flush x 1200
      (contoh:anda membeli 1000 maka:1000 X1200 = 1.200.000)
  4. Royal flush x 10000 harga jackpot yang anda beli
      (contoh:anda membeli 1000 maka:1000 X10000 = 10.000.000)
  5. SUPER ROYAL FLUSH x 30000 harga jackpot yang anda beli
      (contoh:anda membeli 1000 maka:1000 X30000 = 30.000.000)

Kondisi kartu

  1. full house adalah kondisi kartu dimana kartu anda dan kartu tengah dengan total 7 kartu bisa mendapatkan nilai 5 kartu dengan kombinasi 1 tris(three of kind) dan 1 pair, contoh 3 kartu 10 dan 2 kartu 5
  2. Four of kind adalah kondisi kartu dimana kartu anda dan kartu tengah dengan total 7 kartu bisa mendapatkan nilai 5 kartu dengan kombinasi 4 kartu yang sama jumlah dan 1 kartu apapun juga contoh anda mendapatkan 4 buah kartu angka 3 dan 1 kartu apapun.
  3. Staright flush adalah kondisi kartu dimana kartu anda dan kartu tengah dengan total 7 kartu bisa mendapatkan nilai 5 kartu dengan kombinasi seri / staright dengan kembang yang sama contoh : urutan kartu dari angka 5, 6, 7, 8 , 9 10 dengan kembang yg sama misalnya as hati
  4. Royal flush adalah kondisi kartu dimana kartu anda dan kartu tengah dengan total 7 kartu bisa mendapatkan nilai 5 kartu dengan kombinasi seri / staright dengan kembang yang sama tetapi kartu tersebut haruslah dimulai dari 10. contoh 10, Queen, Jack, King dan aces dengan kembang yang sama
  5. Super Royal flush adalah kondisi kartu dimana Kedua kartu anda digabung dengan 3 kartu pertama meja haruslah royal flush. contoh kartu anda 10,Queen kembang sama dan 3 kartu pertama meja adalah Jack, King dan aces dengan kembang yang sama

Demikian adalah penjelasan dari Multi Jackpot www.sayadewi.com terima kasih dan selamat bermain salam hoki dari kami

Texas Poker Jackpot Winner

TOP SUPER ROYAL FLUSH
No.TanggalNamaPriceWin
123/07 02:27TOENK06Super Royal flush15,000,000
222/07 22:22R3FILSuper Royal flush60,000,000
322/07 21:12WIL9Super Royal flush15,000,000
422/07 16:35T4D0015761Super Royal flush6,000,000
522/07 13:28CASKIN7SSuper Royal flush3,000,000
TOP ROYAL FLUSH
No.TanggalNamaPriceWin
123/07 06:24SUMUL33Royal flush5,000,000
223/07 06:16D5JIHANRoyal flush2,000,000
323/07 05:28RZ4Royal flush5,000,000
423/07 05:16KLIK4DRoyal flush10,000,000
523/07 04:59IGOY37Royal flush2,000,000
TOP STRAIGHT FLUSH
No.TanggalNamaPriceWin
123/07 06:43BP885049Straight Flush600,000
223/07 06:39V4NDIR89Straight Flush600,000
323/07 06:36SUPADI9911Straight Flush240,000
423/07 06:36NAIMFATHANStraight Flush120,000
523/07 06:26YCE8BBXN9NStraight Flush1,200,000
LATEST JACKPOT
No.TanggalNamaPriceWin
123/07 06:49KAMASEA11Full House2,000
223/07 06:49H9H95J70CTFull House5,000
323/07 06:49D589035DFull House1,000
423/07 06:49VJLUTFI99Full House2,000
523/07 06:49DANIAC7Full House5,000
623/07 06:49VGOINDEPATFour Of A Kind25,000
723/07 06:49TEUKUIBNUAFull House2,000
823/07 06:49GASCROTTTFull House2,000
923/07 06:49BWGADANGFull House2,000
1023/07 06:49LEXCIFull House20,000
1123/07 06:49YOGI31_Full House10,000
1223/07 06:49AMBO8855Full House5,000
1323/07 06:49HAZURA88Full House1,000
1423/07 06:49SENDI78Full House5,000
1523/07 06:49SINEM22Full House5,000
1623/07 06:49RIMA888Full House1,000
1723/07 06:48ZHAF10Full House2,000
1823/07 06:48AJ01927Full House5,000
1923/07 06:48SAKITGIGI7Full House500
2023/07 06:48EBF1507EFull House10,000
2123/07 06:48UD1N_PE4K_Four Of A Kind25,000
2223/07 06:48C0BEK99Four Of A Kind125,000
2323/07 06:48BIGGBOSZFour Of A Kind25,000
2423/07 06:48CNM09IQ934Full House2,000
2523/07 06:48GADULLE199Full House1,000
2623/07 06:48A7RVHL1LKWFull House2,000
2723/07 06:48B4NYU4LZ4Full House10,000
2823/07 06:48GHIBSONFull House2,000
2923/07 06:48ATOHIDAYATFull House1,000
3023/07 06:48SURIADI001Full House5,000
3123/07 06:48MCSRJO5Full House2,000
3223/07 06:48MARBUKIISFull House2,000
3323/07 06:48MUDIAKARAUFull House10,000
3423/07 06:48PULONGKNTLFull House2,000
3523/07 06:48PELATUKKFull House2,000
3623/07 06:48PASTINAGAFull House2,000
3723/07 06:48YASMINE25Full House20,000
3823/07 06:48QQHEVIQQFull House20,000
3923/07 06:48MER1234Full House2,000
4023/07 06:48AMBO8855Full House5,000
4123/07 06:48TEMPOK000Full House2,000
4223/07 06:48EKSCHEM123Full House20,000
4323/07 06:48ZHOEYFull House1,000
4423/07 06:48MAXJOFull House2,000
4523/07 06:48D5JIHANFull House2,000
4623/07 06:47ZAM2HERIFull House5,000
4723/07 06:47ARLIALESFull House2,000
4823/07 06:47APRTWPFull House2,000
4923/07 06:47DIEHERMANFull House5,000
5023/07 06:47DEWA71363Full House10,000

Domino Multi Jackpot System

Ikutilah global jackpot yang tersedia di system kami, dengan system jackpot terbaru dan pertama di indonesia, anda dapat membeli jackpot dengan harga 100 rupiah saja dan menangkan hadiahnya hingga puluhan juta rupiah.

Jackpot bukanlah suatu keharusan untuk dibeli, namun kami memberikan suatu fitur tambahan untuk member tercinta dari www.sayadewi.com.

Terdapat tiga pilihan harga jackpot yang bisa anda beli yaitu :100,500 dan 1000 rupiah.

Hadiah dari Multi jackpot system www.sayadewi.com

  1. Murni Kecil x 50 harga jackpot yang anda beli.
      (contoh:anda membeli 1000 maka:1000 X 50 = 50.000)
  2. Murni Besar x 50 harga jackpot yang anda beli
      (contoh:anda membeli 1000 maka:1000 X 50 = 50.000)
  3. BALAK x 100 harga jackpot yang anda beli
      (contoh:anda membeli 1000 maka:1000 X 100 = 100.000)
  4. ENAM DEWA x 6666 harga jackpot yang anda beli
      (contoh:anda membeli 1000 maka:1000 X 6666 = 6.666.000)

Demikian adalah penjelasan dari Multi Jackpot www.sayadewi.com terima kasih dan selamat bermain salam hoki dari kami

Domino Jackpot Winner

TOP ENAM DEWA
No.TanggalNamaPriceWin
123/07 06:14GOKIL1998murni enam666,600
223/07 05:44M0YMARLAYmurni enam6,666,000
323/07 05:30PUPUT12JTmurni enam6,666,000
423/07 04:08SBQ19murni enam6,666,000
523/07 03:53KALVENOmurni enam666,600
TOP BALAK
No.TanggalNamaPriceWin
123/07 06:45MGELIK9balak100,000
223/07 06:34KINGDOMS99balak10,000
323/07 06:33GANDI101balak50,000
423/07 06:27FEDRIbalak10,000
523/07 06:24DUCKM99balak10,000
LATEST JACKPOT
No.TanggalNamaPriceWin
123/07 06:49DONGODONG9murni besar25,000
223/07 06:49KUWUK234murni besar50,000
323/07 06:48HAJARWIN28murni besar50,000
423/07 06:47HUTAIMBARUmurni besar25,000
523/07 06:46IYAAMALAImurni kecil25,000
623/07 06:46GG9ZMFPB2Mmurni kecil25,000
723/07 06:45MGELIK9balak100,000
823/07 06:44GANDI101murni besar50,000
923/07 06:43SANGGATAlucky992,500
1023/07 06:41ANGGARACLBmurni besar5,000
1123/07 06:41OVAY2012murni kecil5,000
1223/07 06:40E251C59Bmurni besar50,000
1323/07 06:38CULA89murni besar50,000
1423/07 06:38TUKANGKAWIlucky992,500
1523/07 06:37GIGI1188lucky9950,000
1623/07 06:35TUKANGKAWImurni kecil25,000
1723/07 06:34KINGDOMS99balak10,000
1823/07 06:34FADLI198murni kecil50,000
1923/07 06:33GANDI101balak50,000
2023/07 06:32THOM420murni kecil50,000
2123/07 06:32CULA89murni kecil50,000
2223/07 06:31KAKAK999murni besar25,000
2323/07 06:31ADITGT071murni kecil5,000
2423/07 06:29SIXDEVIL99murni besar50,000
2523/07 06:29ZUKY005murni besar50,000
2623/07 06:29RUPEN55murni kecil25,000
2723/07 06:29VODVODKA1murni besar25,000
2823/07 06:27FEDRIbalak10,000
2923/07 06:26LINGLUNG95murni besar50,000
3023/07 06:26DIK86murni kecil50,000
3123/07 06:26RH3YNDR4murni besar50,000
3223/07 06:26YOPAN19murni besar50,000
3323/07 06:26TUKANGKAWImurni besar25,000
3423/07 06:26RUPEN55murni besar25,000
3523/07 06:25FOREX0404murni kecil5,000
3623/07 06:24DUCKM99balak10,000
3723/07 06:24YANA0812murni besar5,000
3823/07 06:23GALUH92balak100,000
3923/07 06:21AYAMKU21murni kecil25,000
4023/07 06:19AZFIKARmurni kecil50,000
4123/07 06:19TOLENG765balak50,000
4223/07 06:18MGSO21murni besar50,000
4323/07 06:18AGAMHKNbalak100,000
4423/07 06:18S3GAW0Nmurni besar5,000
4523/07 06:17OEFON7DQHHmurni besar50,000
4623/07 06:15SONCEKmurni besar25,000
4723/07 06:14ANGGARACLBmurni besar5,000
4823/07 06:14GOKIL1998murni enam666,600
4923/07 06:13OEFON7DQHHbalak100,000
5023/07 06:13FA1Z4murni kecil50,000

Ceme Multi Jackpot System

Jackpot dilihat dari gabungan kartu pemain dengan kartu bandar. Bandar harus membeli jackpot sebanyak jumlah player yang sedang duduk. Sebagai contoh bila terdapat 3 pemain duduk bermain, dan bandar memutuskan untuk membeli jackpot Rp 1.000, maka pada periode tersebut bandar akan membeli jackpot sebanyak 3xRp1.000 = Rp3.000.

Jackpot bukanlah suatu keharusan untuk dibeli, namun kami memberikan suatu fitur tambahan untuk member tercinta dari www.sayadewi.com.

Terdapat tiga pilihan harga jackpot yang bisa anda beli yaitu :100,500 dan 1000 rupiah.

Hadiah dari Multi jackpot system www.sayadewi.com

  1. Murni Kecil x 50 harga jackpot yang anda beli.
      (contoh:anda membeli 1000 maka:1000 X 50 = 50.000)
  2. Murni Besar x 50 harga jackpot yang anda beli
      (contoh:anda membeli 1000 maka:1000 X 50 = 50.000)
  3. BALAK x 200 harga jackpot yang anda beli
      (contoh:anda membeli 1000 maka:1000 X 200 = 200.000)
  4. ENAM DEWA x 6666 harga jackpot yang anda beli
      (contoh:anda membeli 1000 maka:1000 X 6666 = 6.666.000)

Demikian adalah penjelasan dari Multi Jackpot www.sayadewi.com terima kasih dan selamat bermain salam hoki dari kami

Ceme Jackpot Winner

TOP ENAM DEWA
No.TanggalNamaPriceWin
123/07 06:30ACHER90murni enam6,666,000
223/07 06:30MAXHIN786murni enam6,666,000
323/07 06:26ROJIP33murni enam6,666,000
423/07 06:15M4IL_AJAmurni enam3,333,000
523/07 06:15ROCKYJOmurni enam6,666,000
TOP BALAK
No.TanggalNamaPriceWin
123/07 06:48PENIS07balak200,000
223/07 06:48MAMALAPASbalak200,000
323/07 06:47SURUR009balak100,000
423/07 06:47NGOCE11balak20,000
523/07 06:47CP1712balak20,000
LATEST JACKPOT
No.TanggalNamaPriceWin
123/07 06:49POOKKIEZAmurni besar50,000
223/07 06:49J_BOND88murni besar25,000
323/07 06:49POOKKIEZAmurni besar50,000
423/07 06:49ASJ02murni besar50,000
523/07 06:49IDK898439murni besar50,000
623/07 06:49ITOY12murni besar25,000
723/07 06:49B0SSCARTELmurni besar25,000
823/07 06:48PENIS07balak200,000
923/07 06:48MAMALAPASbalak200,000
1023/07 06:47MAROEMmurni besar25,000
1123/07 06:47KRISNAMICHmurni besar50,000
1223/07 06:47SURUR009balak100,000
1323/07 06:47NGOCE11balak20,000
1423/07 06:47CP1712balak20,000
1523/07 06:47WONARTOmurni kecil50,000
1623/07 06:47LATANDOZmurni kecil5,000
1723/07 06:47EDCBA11murni besar50,000
1823/07 06:46RAMA20122murni besar50,000
1923/07 06:46RAMA20122murni besar50,000
2023/07 06:46RILI0811murni kecil50,000
2123/07 06:46COBER75murni kecil50,000
2223/07 06:46DRAGONNICEmurni besar25,000
2323/07 06:46CIPRAT77murni besar5,000
2423/07 06:46DRAGONNICEbalak100,000
2523/07 06:46WIDIA11murni besar50,000
2623/07 06:46KNDRmurni besar50,000
2723/07 06:46ADALATbalak20,000
2823/07 06:45IDM2308balak20,000
2923/07 06:45C04OLENG88107balak20,000
3023/07 06:44SEKOPmurni besar25,000
3123/07 06:44MIEKUE_10balak100,000
3223/07 06:44PENIS07balak200,000
3323/07 06:44MIEKUE_10murni kecil25,000
3423/07 06:43JHECKY88balak200,000
3523/07 06:43VERY03murni kecil50,000
3623/07 06:43JUNTAXSmurni kecil5,000
3723/07 06:43KUDANIL35murni kecil50,000
3823/07 06:43SENDOK6666balak100,000
3923/07 06:43BMASbalak20,000
4023/07 06:42MRDARMO1balak200,000
4123/07 06:41C04OLENG88107murni besar5,000
4223/07 06:41RAFFA_1234balak100,000
4323/07 06:41PODOL23balak20,000
4423/07 06:41MUMUS17murni besar5,000
4523/07 06:41GENDUT11murni besar5,000
4623/07 06:41BFA4CD03murni kecil25,000
4723/07 06:40RISKA_23murni kecil25,000
4823/07 06:40CIKES66murni kecil50,000
4923/07 06:40MUMUS17murni besar5,000
5023/07 06:40BIMBANG21murni besar50,000